User: anonymous   Login
Location: Seattle
(47.6064°N, 122.3308°W)
Time: 12:53:18
(UTC-07:00)
Language:

Transit 2A Rocket - Orbit

View from above orbital plane
View from above orbital plane
View from above satellite
View from above satellite

Ground track
Ground track

The orbit data is extracted from the following two-line orbital elements,

1 00047U 60007C   21169.60292031 -.00000073  00000-0  86437-5 0  9990
2 00047  66.6661 255.9379 0223247  33.7257 327.7822 14.42155118187471
Epoch (UTC): 18 June 2021 14:28:12
Eccentricity: 0.0223247
inclination: 66.6661°
perigee height: 592 km
apogee height: 910 km
right ascension of ascending node: 255.9379°
argument of perigee: 33.7257°
revolutions per day: 14.42155118
mean anomaly at epoch: 327.7822°
orbit number at epoch: 18747

The dashed part of the orbit path shows where the satellite is in the earth's shadow,  

DLR